STARLINK-3370, 51127

Orbit data source: Space-Track

STARLINK-3370, 51127 is a payload satellite owned by SpaceX/Seattle (US) in LEO that was launched on Wed, 19 Jan 2022 UTC via an FALCON 9 launch vehicle from the Air Force Eastern Test Range (AFETR). Payload-class satellites include a variety of spacecraft equipped with specific instruments for various scientific and technological missions. These include communications satellites like Starlink; space stations such as the ISS; scientific satellites like the Hubble; Earth observation satellites from companies like Planet Labs, Umbra, and HawkEye 360; GPS; miniature CubeSats for education and research; and military/defense satellites.

Loading next visibility...
Identifier
51127, 2022-005Z
Orbit
LEO
Country
Flag of USUS
Related business
Manufacturer
SpaceX/Seattle
Mission
Operational Commercial Communications
Bus & Motor
STARLINK, Unknown motor
Mass
297 kg wet, ~275 kg dry
Launch date (UTC)
2022-01-19 (4 years ago)
Launch vehicle
FALCON 9
Launch site
Air Force Eastern Test Range (AFETR)
Object type
Payload
Rocket body
Debris
Shape & HBR
Box + 1 Pan, 10.1 m
Radar Cross Section
13.562 m², Large (>1 m²)

Expand to show TLE details & history
Last TLE update: 1 day ago

TLE from 1 day ago
0 STARLINK-3370
1 51127U 22005Z   26093.52805980  .00001939  00000-0  13983-3 0  9991
2 51127  53.2156 187.6264 0001420  93.5897 266.5257 15.08849531232488
Epoch: 2026-04-03T12:40Z
TLE epoch observation values (Epoch: 2026-04-03T12:40:24.366Z)
Latitude
-0.00008°
Longitude
165.66392°
Altitude
540.671 km
Speed
7.593 km/s
True Right ascension
12h 30m 30s
True Declination
0° 00' 00"
Sunlit
Object was in full shadow at epoch
Visualization orbit readout
Latitude
Unknown
Longitude
Unknown
Altitude
Unknown
Speed
Unknown
Apparent Right ascension
Unknown
Apparent Declination
Unknown
Sunlit
N/A
Visualization observer readout
Local Sidereal Time
01:56:44
Azimuth
Unknown
Elevation
Unknown
Doppler factor
Unknown
Orbital elements
Apogee altitude
540.942 km
Perigee altitude
538.977 km
Semi-major axis
6,918.096 km
Eccentricity
0.00014
Inclination
53.2156°
RAAN
187.6264°
Arg. of periapsis
93.5897°
True anomaly
266.50946°
Mean anomaly
266.5257°
Eccentric anomaly
266.51758°
Mean motion
3.77193 °/min
Orbital period
95.44 mins
BSTAR
0.00013983
Loading maneuver chart data...
Computing Atmospheric mass density...
Loading historical data...
Loading historical data...
Loading historical data...
Loading historical data...
Loading historical data...
Loading historical data...
Loading historical data...

Documentation

Showing up to 5 results
|